STARLINK-34683

Last updated on Tue Aug 19 2025 00:02:06 GMT+0000 (Coordinated Universal Time)

1 64857U 25152R 25230.60297553 .00015034 00000+0 38668-3 0 9990 2 64857 97.6025 84.1532 0001869 90.9291 269.2168 15.39362250 4787
UTC large
Height (km)
Speed (km/s)
/
Latitude / Longitude
Inclination (degrees)
Orbital Period (minutes)
Azimuth
Elevation
Range (km)
Doppler Factor

Next 0 passes for location: London (51.5072 / 0.1276)

Sorry there are no passes over London.